CAPE
0 5 10 13 17 9 0 0 0 0 0 0 0 0 0 0 0 0 0 0 0 0
0 0 0 0 21 12 0 0 0 0 0 0 0 0 0 0 0 0 0 0 0 0
0 0 0 0 0 0 0 0 0 0 0 0 0 0 0 0 0 0 0 0 0 0
0 0 0 0 0 0 0 0 0 0 0 0 0 0 0 0 0 0 0 0 0 0
0 0 0 0 0 0 0 0 0 0 0 0 0 0 0 0 0 0 0 0 0 0
0 0 0 0 0 0 0 0 0 0 0 0 0 0 0 0 0 0 0 0 0 0
0 0 0 0 0 0 0 0 0 0 0 0 0 0 0 0 0 0 0 0 0 0
0 0 0 0 0 0 0 0 0 0 0 0 0 0 0 0 0 0 0 0 0 0
0 0 0 0 0 0 0 0 0 0 0 0 0 1 0 0 0 0 0 0 0 0
0 0 0 0 0 0 0 0 0 0 0 0 1 1 2 1 0 0 1 0 0 0
0 0 0 0 0 1 0 0 0 1 0 0 3 3 3 3 0 0 0 0 0 0
1 3 3 3 2 2 2 1 1 0 0 1 1 3 0 0 0 0 0 0 0 0
1 1 1 1 1 1 0 0 1 0 0 1 0 4 0 0 0 0 0 0 0 0
1 1 1 0 0 0 0 0 1 1 0 0 0 0 0 0 0 0 0 0 0 0
CIN
-0 -172 -173 -179 -196 -207 -0 -0 -0 -0 -0 -0 -0 -0 -0 -0 -0 -0 -0 -0 -0 -0
-0 -0 -0 -0 -233 -224 -0 -0 -0 -0 -0 -0 -0 -0 -0 -0 -0 -0 -0 -0 -0 -0
-0 -0 -0 -0 -0 -0 -0 -0 -0 -0 -0 -0 -0 -0 -0 -0 -0 -0 -0 -0 -0 -0
-0 -0 -0 -0 -0 -0 -0 -0 -0 -0 -0 -0 -0 -0 -0 -0 -0 -0 -0 -0 -0 -0
-0 -0 -0 -0 -0 -0 -0 -0 -0 -0 -0 -0 -0 -0 -0 -0 -0 -0 -0 -0 -0 -0
-0 -0 -0 -0 -0 -0 -0 -0 -0 -0 -0 -0 -0 -0 -0 -0 -0 -0 -0 -0 -0 -0
-0 -0 -0 -0 -0 -0 -0 -0 -0 -0 -0 -0 -0 -0 -0 -0 -0 -0 -0 -0 -0 -0
-0 -0 -0 -0 -0 -0 -0 -0 -0 -0 -0 -0 -0 -0 -0 -0 -0 -0 -0 -0 -0 -0
-0 -0 -0 -0 -0 -0 -0 -0 -0 -0 -0 -0 -0 -0 -0 -0 -0 -0 -0 -0 -0 -0
-0 -0 -0 -0 -0 -0 -0 -0 -0 -0 -0 -0 -0 -0 -0 -0 -0 -0 -0 -0 -0 -0
-0 -0 -0 -0 -0 -0 -0 -0 -0 -0 -0 -0 -0 -0 -0 -0 -0 -0 -0 -0 -0 -0
-0 -0 -0 -0 -0 -0 -0 -0 -0 -0 -0 -0 -0 -0 -0 -0 -0 -0 -0 -0 -0 -0
-0 -0 -0 -0 -0 -0 -0 -0 -0 -0 -0 -0 -0 -0 -0 -0 -0 -0 -0 -0 -0 -0
-0 -0 -0 -0 -0 -0 -0 -0 -0 -0 -0 -0 -0 -0 -0 -0 -0 -0 -0 -0 -0 -0
Wind_Speed
29 30 31 33 35 35 33 32 32 31 29 26 23 22 21 20 20 19 18 17 17 21
33 33 34 34 33 35 34 33 29 29 30 27 25 22 21 21 21 20 18 17 16 13
36 36 37 35 34 33 33 31 29 27 27 28 26 23 21 21 20 18 18 17 15 16
34 34 34 34 33 32 30 28 28 26 25 24 24 22 21 20 19 17 17 17 15 16
34 32 32 31 29 27 28 26 25 23 22 21 20 20 19 18 17 17 16 17 19 18
33 32 30 27 25 23 23 23 21 19 19 17 17 16 16 16 16 16 18 18 20 21
31 29 25 22 20 19 18 17 16 15 14 14 13 12 12 13 15 14 17 19 22 21
23 19 17 16 15 15 14 13 12 12 12 10 10 12 12 13 14 18 19 20 23 24
15 13 13 11 10 11 11 10 9 9 9 11 11 9 10 12 15 18 19 22 26 23
13 12 11 9 8 8 7 6 7 7 7 9 8 8 10 11 14 16 20 20 21 24
14 12 10 9 8 6 5 4 5 6 6 7 8 9 11 14 16 17 17 19 21 24
13 11 9 10 7 9 6 5 6 5 6 7 9 10 12 12 14 18 19 21 22 24
17 14 14 13 16 10 9 6 7 8 9 11 10 10 12 15 17 19 20 22 24 27
23 19 19 21 14 15 14 12 10 12 12 14 14 15 15 16 19 20 22 25 28 28
Wind_Direction
284 282 279 276 270 267 266 265 263 258 258 258 258 260 262 264 269 272 278 281 292 292
287 284 283 280 275 271 268 268 266 262 259 258 259 259 262 266 270 273 277 282 287 290
288 286 283 282 276 273 272 269 265 263 262 260 259 259 264 267 271 272 279 282 286 293
292 290 286 282 279 274 273 271 268 265 263 261 260 259 263 268 271 272 277 286 288 295
294 292 290 286 280 277 273 271 268 265 263 261 259 259 262 266 271 275 276 285 293 299
294 292 291 287 283 280 277 271 267 263 261 261 262 264 268 271 274 277 286 293 292 302
295 295 293 291 287 283 279 273 267 265 263 264 266 268 276 283 286 281 294 299 301 305
301 303 300 297 291 287 282 274 268 265 265 266 273 278 282 285 284 297 300 303 304 306
336 330 324 317 310 295 286 276 272 264 271 277 283 290 296 297 297 300 304 302 304 310
349 353 351 348 338 323 307 296 280 286 289 290 297 303 306 310 310 311 311 317 315 318
3 359 3 2 360 351 340 331 317 303 310 312 317 321 318 315 324 316 325 328 328 326
322 314 350 29 356 24 22 328 13 13 352 342 327 332 330 334 334 333 333 338 339 335
45 25 42 43 63 38 37 20 17 11 359 13 351 333 353 347 346 344 344 341 340 337
58 47 51 59 50 52 47 42 13 23 12 25 19 8 8 7 355 349 346 341 339 340